DW0243 Weather Reports


time (UTC)temp
C
wind
direction
speed
KPH
gust
KPH
rain 1hr
cm
rain 24hr
cm
rain mn
cm
humidity
%
barometer
mb
20200227120705 2 169 4.8 16.1 0.00 0.10 0.05 88 996.8
20200227120205 2 142 4.8 16.1 0.00 0.10 0.05 87 996.9
20200227115705 2 146 4.8 12.9 0.00 0.13 0.05 86 997.1
20200227115205 2 147 3.2 12.9 0.00 0.13 0.05 84 997.2
20200227114705 3 104 3.2 14.5 0.00 0.13 0.05 83 997.3
20200227114205 3 135 4.8 14.5 0.00 0.13 0.05 82 997.4
20200227113704 3 157 4.8 14.5 0.00 0.13 0.05 82 997.4
20200227113205 3 135 3.2 12.9 0.00 0.13 0.05 82 997.6
20200227112705 3 151 4.8 16.1 0.00 0.15 0.05 82 997.8
20200227112205 3 83 6.4 16.1 0.00 0.15 0.05 82 997.9
20200227111705 3 153 6.4 16.1 0.00 0.15 0.05 82 998.1
20200227111205 3 134 4.8 12.9 0.00 0.15 0.05 82 998.3
20200227110704 3 131 3.2 12.9 0.00 0.15 0.05 83 998.4
20200227110205 3 161 3.2 17.7 0.00 0.15 0.05 83 998.6
20200227105705 3 95 3.2 17.7 0.00 0.15 0.05 84 998.8
20200227105205 2 159 4.8 17.7 0.00 0.15 0.05 83 998.8
20200227104705 2 159 4.8 12.9 0.00 0.15 0.05 83 998.9
20200227104205 2 127 3.2 8.0 0.00 0.15 0.05 84 999.1
20200227103705 2 114 3.2 12.9 0.00 0.15 0.05 85 999.3
20200227103206 2 95 3.2 12.9 0.00 0.15 0.05 85 999.4
20200227102705 2 133 3.2 12.9 0.00 0.15 0.05 85 999.6
20200227102205 2 125 3.2 9.7 0.00 0.15 0.05 85 999.8
20200227101704 2 126 1.6 4.8 0.00 0.15 0.05 86 999.8
20200227101205 2 114 3.2 9.7 0.00 0.15 0.05 86 1000.0
20200227100705 2 175 4.8 9.7 0.00 0.15 0.05 86 1000.2
20200227100205 2 86 4.8 9.7 0.00 0.15 0.05 85 1000.4
20200227095705 2 148 1.6 14.5 0.00 0.15 0.05 86 1000.6
20200227095205 2 124 3.2 14.5 0.00 0.15 0.05 86 1000.8
20200227094705 2 136 3.2 9.7 0.00 0.15 0.05 87 1000.9
20200227094205 2 162 1.6 9.7 0.00 0.15 0.05 87 1001.0
20200227093705 2 109 1.6 4.8 0.00 0.15 0.05 87 1001.1
20200227093205 2 214 0.0 6.4 0.00 0.15 0.05 87 1001.2
20200227092704 2 182 1.6 6.4 0.00 0.15 0.05 87 1001.3
20200227092204 1 182 1.6 6.4 0.00 0.15 0.05 87 1001.4
20200227091705 1 156 1.6 8.0 0.00 0.15 0.05 87 1001.6
20200227091205 1 237 1.6 8.0 0.00 0.15 0.05 87 1001.7
20200227090705 1 237 1.6 8.0 0.00 0.15 0.05 87 1001.8
20200227090205 1 136 1.6 9.7 0.00 0.15 0.05 87 1001.9
20200227085705 1 198 1.6 9.7 0.00 0.15 0.05 88 1001.9
20200227085205 1 199 1.6 9.7 0.00 0.15 0.05 88 1002.0
20200227084705 1 141 0.0 4.8 0.00 0.15 0.05 89 1002.1
20200227084205 1 80 0.0 9.7 0.00 0.15 0.05 89 1002.3
20200227083704 1 80 0.0 9.7 0.00 0.15 0.05 89 1002.3
20200227083205 1 141 1.6 9.7 0.00 0.18 0.05 89 1002.4
20200227082705 1 140 1.6 4.8 0.00 0.18 0.05 90 1002.5
20200227082205 1 150 1.6 4.8 0.00 0.18 0.05 89 1002.6
20200227081705 1 150 1.6 8.0 0.00 0.20 0.05 89 1002.7
20200227081206 1 152 1.6 9.7 0.00 0.23 0.05 89 1002.8
20200227080705 1 134 1.6 9.7 0.00 0.23 0.05 89 1002.9
20200227080206 1 167 1.6 9.7 0.00 0.23 0.05 89 1002.9
20200227075704 1 146 0.0 6.4 0.00 0.23 0.05 90 1002.9
20200227075205 1 224 1.6 6.4 0.00 0.25 0.05 90 1003.0
20200227074705 1 225 0.0 6.4 0.00 0.25 0.05 90 1003.0
20200227074205 1 161 0.0 3.2 0.00 0.25 0.05 90 1003.1
20200227073704 1 176 0.0 4.8 0.00 0.25 0.05 91 1003.1
20200227073206 1 173 1.6 9.7 0.00 0.28 0.05 91 1003.1
20200227072705 1 196 1.6 9.7 0.00 0.28 0.05 91 1003.1
20200227072204 1 167 1.6 9.7 0.00 0.28 0.05 91 1003.2
20200227071705 1 186 1.6 6.4 0.03 0.28 0.05 91 1003.2
20200227071205 1 223 1.6 6.4 0.03 0.28 0.05 91 1003.2
20200227070705 1 121 0.0 6.4 0.03 0.28 0.05 92 1003.2
20200227070205 0 162 0.0 6.4 0.03 0.30 0.05 92 1003.2
20200227065705 0 170 0.0 1.6 0.03 0.30 0.05 93 1003.3
20200227065204 0 132 0.0 3.2 0.03 0.30 0.05 93 1003.3
20200227064705 0 132 0.0 3.2 0.03 0.30 0.05 93 1003.3
20200227064206 0 132 0.0 0.0 0.03 0.30 0.05 93 1003.3
20200227063705 0 165 0.0 1.6 0.03 0.30 0.05 93 1003.3
20200227063205 0 164 0.0 1.6 0.03 0.30 0.05 94 1003.4
20200227062704 0 163 0.0 0.0 0.03 0.30 0.05 94 1003.4
20200227062205 0 163 0.0 0.0 0.00 0.28 0.03 94 1003.5
20200227061705 0 163 0.0 0.0 0.00 0.28 0.03 94 1003.5
20200227061205 0 163 0.0 0.0 0.00 0.28 0.03 94 1003.5
20200227060705 0 163 0.0 0.0 0.00 0.28 0.03 94 1003.5
20200227060206 0 163 0.0 0.0 0.00 0.28 0.03 94 1003.5
20200227055705 0 163 0.0 0.0 0.00 0.28 0.03 94 1003.6
20200227055205 0 163 0.0 0.0 0.00 0.28 0.03 94 1003.6
20200227054705 0 163 0.0 0.0 0.00 0.28 0.03 94 1003.7
20200227054205 0 163 0.0 0.0 0.00 0.28 0.03 94 1003.7
20200227053704 0 163 0.0 0.0 0.00 0.28 0.03 94 1003.9
20200227053205 0 163 0.0 0.0 0.00 0.28 0.03 94 1004.0
20200227052705 0 163 0.0 0.0 0.00 0.28 0.03 94 1004.0
20200227052205 0 163 0.0 0.0 0.00 0.28 0.03 94 1004.0
20200227051705 0 163 0.0 0.0 0.00 0.28 0.03 94 1004.0
20200227051205 0 163 0.0 0.0 0.00 0.28 0.03 94 1004.0
20200227050705 0 163 0.0 0.0 0.00 0.28 0.03 94 1004.0
20200227050205 0 163 0.0 0.0 0.00 0.28 0.03 94 1004.0
20200227045704 0 163 0.0 3.2 0.00 0.28 0.03 94 1004.1
20200227045205 0 163 0.0 3.2 0.00 0.28 0.03 94 1004.3
20200227044705 0 161 0.0 3.2 0.00 0.28 0.03 94 1004.3
20200227044205 0 161 0.0 3.2 0.00 0.28 0.03 94 1004.1
20200227043705 0 161 0.0 3.2 0.00 0.28 0.03 94 1004.1
20200227043205 0 161 0.0 3.2 0.00 0.28 0.03 94 1004.3
20200227042705 0 161 0.0 3.2 0.00 0.28 0.03 94 1004.4
20200227042205 0 161 0.0 3.2 0.00 0.28 0.03 94 1004.4
20200227041704 0 161 0.0 3.2 0.00 0.28 0.03 94 1004.5
20200227041205 0 161 0.0 3.2 0.00 0.28 0.03 93 1004.4
20200227040705 0 161 0.0 3.2 0.00 0.28 0.03 93 1004.5
20200227040205 0 160 0.0 3.2 0.00 0.28 0.03 93 1004.5
20200227035705 0 160 0.0 6.4 0.00 0.28 0.03 93 1004.5
20200227035205 0 161 0.0 6.4 0.00 0.28 0.03 93 1004.6
20200227034705 0 161 1.6 6.4 0.00 0.28 0.03 93 1004.6
20200227034205 0 160 1.6 6.4 0.00 0.28 0.03 93 1004.6
20200227033704 0 155 1.6 6.4 0.00 0.28 0.03 93 1004.6
20200227033210 0 171 1.6 6.4 0.00 0.28 0.03 93 1004.6
20200227032705 0 169 0.0 4.8 0.03 0.28 0.03 93 1004.7
20200227032205 0 178 0.0 3.2 0.03 0.28 0.03 93 1004.7
20200227031705 0 176 0.0 6.4 0.03 0.28 0.03 93 1004.8
20200227031205 0 188 0.0 8.0 0.03 0.28 0.03 93 1004.8
20200227030705 0 155 1.6 8.0 0.03 0.28 0.03 93 1004.8
20200227030205 0 169 1.6 8.0 0.03 0.28 0.03 93 1004.8
20200227025705 0 167 0.0 6.4 0.03 0.28 0.03 93 1004.8
20200227025205 0 184 0.0 3.2 0.03 0.28 0.03 93 1004.7
20200227024705 0 184 0.0 1.6 0.03 0.28 0.03 92 1004.7
20200227024205 0 184 0.0 3.2 0.03 0.28 0.03 92 1004.8
20200227023705 0 185 0.0 6.4 0.03 0.28 0.03 91 1004.8
20200227023205 1 186 1.6 6.4 0.03 0.28 0.03 91 1004.8
20200227022705 1 185 1.6 6.4 0.00 0.25 0.00 90 1004.9
20200227022205 1 181 0.0 6.4 0.00 0.25 0.00 90 1005.0
20200227021705 1 242 1.6 6.4 0.00 0.25 0.00 90 1005.0
20200227021205 1 191 1.6 6.4 0.00 0.25 0.00 89 1005.0
20200227020705 1 186 1.6 3.2 0.00 0.25 0.00 89 1005.0
20200227020206 1 187 0.0 3.2 0.00 0.25 0.00 89 1005.0
20200227015704 1 180 0.0 4.8 0.00 0.25 0.00 89 1005.1
20200227015204 1 238 0.0 8.0 0.00 0.25 0.00 89 1005.1
20200227014705 1 221 1.6 8.0 0.00 0.25 0.00 88 1005.1
20200227014205 1 238 1.6 8.0 0.00 0.25 0.00 88 1005.1
20200227013705 1 202 1.6 6.4 0.00 0.25 0.00 88 1005.0
20200227013205 1 184 1.6 8.0 0.00 0.25 0.00 88 1004.9
20200227012705 1 273 1.6 8.0 0.00 0.25 0.00 88 1005.0
20200227012205 1 181 1.6 8.0 0.00 0.25 0.00 88 1004.9
20200227011705 1 229 0.0 4.8 0.00 0.25 0.00 88 1005.1
20200227011205 1 164 0.0 6.4 0.00 0.25 0.00 88 1005.0
20200227010705 1 162 0.0 9.7 0.00 0.28 0.00 87 1005.1
20200227010205 1 166 1.6 9.7 0.00 0.28 0.00 87 1005.1
20200227005705 1 220 1.6 9.7 0.00 0.28 0.00 87 1005.0
20200227005204 1 244 1.6 6.4 0.00 0.28 0.00 87 1005.1
20200227004705 1 194 1.6 6.4 0.00 0.28 0.00 87 1005.1
20200227004205 1 223 1.6 4.8 0.00 0.28 0.00 87 1005.1
20200227003705 1 215 1.6 4.8 0.00 0.28 0.00 87 1005.0
20200227003205 1 198 0.0 4.8 0.00 0.28 0.00 87 1005.0
20200227002705 1 181 0.0 4.8 0.00 0.30 0.00 87 1005.0
20200227002206 1 173 1.6 6.4 0.00 0.30 0.00 87 1005.0
20200227001705 1 243 3.2 6.4 0.00 0.30 0.00 87 1005.0
20200227001205 1 244 3.2 6.4 0.00 0.30 0.00 87 1005.0
20200227000705 1 210 1.6 8.0 0.00 0.30 0.00 88 1005.0
20200227000206 1 196 1.6 8.0 0.00 0.30 0.00 88 1005.0
20200226235705 1 169 0.0 8.0 0.00 0.30 0.00 89 1005.0
20200226235205 1 191 0.0 4.8 0.00 0.30 0.00 89 1005.0
20200226234705 1 179 0.0 6.4 0.00 0.30 0.00 89 1005.0
20200226234205 1 207 0.0 6.4 0.00 0.30 0.00 89 1005.0
20200226233706 1 207 0.0 6.4 0.00 0.30 0.00 88 1005.0
20200226233204 1 192 1.6 6.4 0.00 0.30 0.00 88 1005.0
20200226232705 1 260 1.6 6.4 0.00 0.30 0.00 88 1005.0
20200226232205 1 198 0.0 4.8 0.00 0.30 0.00 87 1004.9
20200226231705 1 226 0.0 4.8 0.00 0.30 0.00 86 1004.9
20200226231205 1 227 1.6 6.4 0.00 0.30 0.00 86 1004.8
20200226230704 1 178 1.6 14.5 0.00 0.30 0.00 86 1004.8
20200226230205 1 178 3.2 14.5 0.00 0.30 0.30 86 1004.8
20200226225705 2 284 4.8 14.5 0.00 0.30 0.30 85 1004.8
20200226225205 1 272 3.2 11.3 0.00 0.30 0.30 85 1004.8
20200226224705 1 261 3.2 11.3 0.00 0.30 0.30 86 1004.8
20200226224205 1 200 1.6 8.0 0.00 0.30 0.30 86 1004.9
20200226223705 1 254 1.6 6.4 0.00 0.30 0.30 86 1004.8
20200226223205 1 264 1.6 11.3 0.00 0.30 0.30 86 1004.7
20200226222704 1 232 3.2 11.3 0.00 0.30 0.30 86 1004.7
20200226222205 1 254 3.2 11.3 0.00 0.30 0.30 86 1004.6
20200226221705 1 259 3.2 14.5 0.00 0.30 0.30 86 1004.7
20200226221204 1 269 4.8 14.5 0.00 0.30 0.30 87 1004.6
20200226220705 1 277 6.4 17.7 0.00 0.30 0.30 86 1004.6
20200226220205 1 264 6.4 17.7 0.00 0.30 0.30 85 1004.6
20200226215704 1 277 4.8 17.7 0.00 0.30 0.30 85 1004.6
20200226215205 1 268 3.2 14.5 0.00 0.30 0.30 85 1004.5
20200226214705 1 238 4.8 14.5 0.00 0.30 0.30 84 1004.5
20200226214205 1 260 4.8 12.9 0.00 0.30 0.30 85 1004.5
20200226213704 1 250 4.8 12.9 0.00 0.30 0.30 84 1004.4
20200226213205 1 267 3.2 16.1 0.00 0.30 0.30 84 1004.4
20200226212705 1 229 3.2 16.1 0.00 0.30 0.30 84 1004.4
20200226212205 1 156 4.8 16.1 0.00 0.30 0.30 84 1004.3
20200226211705 1 223 4.8 11.3 0.00 0.30 0.30 84 1004.1
20200226211205 1 197 3.2 14.5 0.00 0.30 0.30 84 1004.1
20200226210705 1 225 4.8 14.5 0.00 0.30 0.30 84 1004.0
20200226210204 1 249 4.8 14.5 0.00 0.30 0.30 84 1004.0
20200226205705 1 150 6.4 14.5 0.00 0.30 0.30 84 1004.0
20200226205205 1 275 6.4 17.7 0.00 0.30 0.30 84 1003.9
20200226204704 2 242 8.0 17.7 0.00 0.30 0.30 84 1003.9
20200226204204 2 260 9.7 19.3 0.00 0.30 0.30 84 1003.9
20200226203705 2 282 9.7 19.3 0.00 0.30 0.30 83 1003.8
20200226203205 2 262 6.4 19.3 0.00 0.30 0.30 84 1003.8
20200226202705 2 282 8.0 16.1 0.00 0.30 0.30 84 1003.8
20200226202204 2 200 9.7 17.7 0.00 0.30 0.30 84 1003.8
20200226201705 2 250 6.4 17.7 0.00 0.30 0.30 84 1003.7
20200226201204 2 254 8.0 30.6 0.00 0.33 0.30 84 1003.6
20200226200705 2 287 11.3 30.6 0.00 0.36 0.30 84 1003.5
20200226200206 2 295 9.7 30.6 0.00 0.38 0.30 84 1003.4
20200226195704 1 260 6.4 24.1 0.00 0.38 0.30 85 1003.4
20200226195205 2 254 6.4 24.1 0.00 0.38 0.30 86 1003.3
20200226194705 2 263 6.4 17.7 0.00 0.38 0.30 86 1003.3
20200226194205 1 257 3.2 14.5 0.00 0.41 0.30 87 1003.2
20200226193704 1 268 3.2 16.1 0.00 0.41 0.30 87 1003.2
20200226193205 1 246 4.8 16.1 0.00 0.43 0.30 87 1003.1
20200226192705 1 274 4.8 12.9 0.00 0.43 0.30 87 1003.1
20200226192206 1 259 3.2 9.7 0.00 0.46 0.30 88 1003.1
20200226191705 1 268 1.6 6.4 0.00 0.48 0.30 89 1003.1
20200226191205 1 244 1.6 11.3 0.03 0.51 0.30 89 1003.0
20200226190704 1 244 3.2 16.1 0.03 0.51 0.30 89 1003.0
20200226190205 1 238 4.8 16.1 0.03 0.51 0.30 89 1002.9
20200226185705 1 222 4.8 16.1 0.03 0.51 0.30 90 1002.8
20200226185205 1 250 1.6 6.4 0.03 0.53 0.30 92 1002.8
20200226184705 1 169 1.6 6.4 0.03 0.56 0.30 92 1002.7
20200226184205 1 167 1.6 6.4 0.03 0.61 0.30 93 1002.8
20200226183705 1 154 1.6 4.8 0.03 0.61 0.30 93 1002.7
20200226183205 1 191 1.6 4.8 0.03 0.61 0.30 93 1002.7
20200226182705 1 178 1.6 4.8 0.03 0.61 0.30 92 1002.7
20200226182210 1 188 1.6 4.8 0.03 0.64 0.30 92 1002.6
20200226181705 1 186 1.6 4.8 0.00 0.64 0.28 91 1002.6
20200226181205 1 212 0.0 9.7 0.00 0.64 0.28 91 1002.5
20200226180705 1 240 1.6 17.7 0.00 0.64 0.28 90 1002.4
20200226180205 1 240 6.4 17.7 0.00 0.64 0.28 89 1002.4
20200226175705 1 250 8.0 17.7 0.00 0.64 0.28 89 1002.4
20200226175204 2 259 6.4 16.1 0.00 0.64 0.28 88 1002.2
20200226174705 2 295 6.4 19.3 0.00 0.69 0.28 87 1002.0
20200226174205 2 260 6.4 19.3 0.00 0.71 0.28 87 1001.9
20200226173705 2 259 8.0 19.3 0.00 0.71 0.28 87 1001.9
20200226173205 2 276 6.4 17.7 0.00 0.71 0.28 87 1001.9
20200226172705 2 261 4.8 9.7 0.00 0.71 0.28 87 1001.9
20200226172205 2 265 3.2 9.7 0.00 0.71 0.28 88 1001.8
20200226171705 2 252 4.8 11.3 0.00 0.71 0.28 88 1001.8
20200226171206 2 273 4.8 11.3 0.00 0.71 0.28 89 1001.6
20200226170705 1 254 3.2 12.9 0.00 0.71 0.28 89 1001.4
20200226170205 1 253 3.2 12.9 0.00 0.71 0.28 89 1001.4
20200226165705 1 285 4.8 12.9 0.00 0.71 0.28 89 1001.3
20200226165205 1 247 4.8 12.9 0.00 0.71 0.28 89 1001.1
20200226164705 1 258 4.8 11.3 0.00 0.71 0.28 89 1001.2
20200226164205 2 278 3.2 9.7 0.00 0.71 0.28 89 1001.1
20200226163704 1 252 3.2 14.5 0.00 0.71 0.28 89 1001.1
20200226163205 2 224 3.2 19.3 0.00 0.71 0.28 89 1001.0
20200226162705 2 225 6.4 19.3 0.00 0.71 0.28 88 1001.0
20200226162205 2 211 8.0 19.3 0.00 0.71 0.28 88 1000.9
20200226161705 2 252 6.4 17.7 0.00 0.71 0.28 88 1000.8
20200226161205 2 240 4.8 14.5 0.00 0.71 0.28 87 1000.8
20200226160704 2 263 4.8 17.7 0.00 0.71 0.28 87 1000.7
20200226160205 2 269 6.4 22.5 0.00 0.71 0.28 86 1000.6
20200226155704 2 263 8.0 22.5 0.00 0.71 0.28 85 1000.5
20200226155205 2 275 9.7 22.5 0.00 0.71 0.28 85 1000.4
20200226154705 2 265 11.3 22.5 0.00 0.71 0.28 85 1000.4
20200226154205 2 268 11.3 22.5 0.00 0.71 0.28 85 1000.4
20200226153704 2 281 11.3 25.7 0.00 0.71 0.28 86 1000.2
20200226153205 2 243 12.9 25.7 0.00 0.71 0.28 86 1000.2
20200226152704 2 260 12.9 25.7 0.00 0.71 0.28 87 1000.2
20200226152205 2 258 9.7 20.9 0.00 0.71 0.28 88 1000.0
20200226151705 2 281 8.0 17.7 0.00 0.71 0.28 88 999.9
20200226151206 2 263 6.4 16.1 0.00 0.71 0.28 88 999.8
20200226150705 2 211 6.4 14.5 0.00 0.71 0.28 87 999.7
20200226150205 2 254 8.0 14.5 0.00 0.71 0.28 87 999.6
20200226145705 2 276 6.4 20.9 0.03 0.71 0.28 87 999.6
20200226145205 2 283 6.4 20.9 0.05 0.71 0.28 87 999.5
20200226144705 2 255 8.0 20.9 0.05 0.71 0.28 88 999.3
20200226144205 2 252 4.8 16.1 0.05 0.71 0.28 89 999.3
20200226143705 2 234 4.8 16.1 0.05 0.71 0.28 90 999.3
20200226143205 2 269 4.8 16.1 0.05 0.71 0.28 91 999.3
20200226142705 2 283 4.8 14.5 0.05 0.71 0.28 91 999.3
20200226142205 1 230 4.8 14.5 0.05 0.71 0.28 92 999.2
20200226141707 1 279 4.8 14.5 0.05 0.71 0.28 92 999.3
20200226141205 1 302 6.4 14.5 0.05 0.71 0.28 92 999.1
20200226140705 1 251 6.4 14.5 0.05 0.71 0.28 92 999.1
20200226140205 1 284 6.4 14.5 0.03 0.71 0.25 91 999.0
20200226135704 1 256 6.4 19.3 0.00 0.69 0.23 91 998.9
20200226135205 2 294 6.4 19.3 0.00 0.69 0.23 91 998.7
20200226134705 2 265 6.4 16.1 0.00 0.69 0.23 90 998.6
20200226134205 2 269 8.0 19.3 0.00 0.69 0.23 91 998.6
20200226133705 2 262 8.0 19.3 0.00 0.69 0.23 90 998.5
20200226133205 2 275 8.0 20.9 0.00 0.69 0.23 90 998.4
20200226132705 2 286 8.0 20.9 0.00 0.69 0.23 89 998.4
20200226132205 2 260 6.4 20.9 0.00 0.69 0.23 90 998.3
20200226131705 2 266 8.0 20.9 0.00 0.69 0.23 90 998.3
20200226131205 2 258 8.0 22.5 0.00 0.69 0.23 90 998.2
20200226130705 2 252 9.7 22.5 0.00 0.71 0.23 90 998.1
20200226130205 2 252 9.7 22.5 0.00 0.71 0.23 90 998.1
20200226125704 2 258 8.0 20.9 0.03 0.71 0.23 90 997.9
20200226125205 2 258 8.0 24.1 0.03 0.71 0.23 90 997.8
20200226124705 2 247 9.7 24.1 0.03 0.71 0.23 90 997.7
20200226124207 2 263 11.3 24.1 0.03 0.71 0.23 89 997.6
20200226123704 2 274 11.3 22.5 0.03 0.71 0.23 90 997.6
20200226123205 2 292 9.7 22.5 0.03 0.71 0.23 89 997.5
20200226122705 2 267 9.7 22.5 0.05 0.71 0.23 90 997.5
20200226122205 2 257 8.0 22.5 0.05 0.71 0.23 90 997.4
20200226121706 1 269 6.4 19.3 0.05 0.71 0.23 91 997.2
20200226121204 1 256 8.0 19.3 0.05 0.71 0.23 91 997.2